Location: Newark
(41.0400°S, 62.7845°W)
Time: 23:10:28
(UTC+00:00)

Vanguard 2 - Pass Details

Date: 10 December 2021
Orbit: 554 x 2935 km, 32.9° (Epoch: 27 January)

Event Time Altitude Azimuth Distance (km) Brightness Sun altitude
Rises 02:05:56 0° 312° (NW) 6,014 12.0 -20.4°
Reaches altitude 10° 02:09:45 10° 317° (NW) 5,248 11.6 -20.8°
Maximum altitude 02:25:12 49° 25° (NNE) 3,516 10.4 -22.1°
Drops below altitude 10° 02:41:18 10° 92° (E) 5,473 11.7 -23.2°
Sets 02:45:22 0° 96° (E) 6,282 12.1 -23.5°
